Regional Weather Roundup
Issued by NWS

Home | Current Version | Previous Version | Graphics & Text | Print | Product List | Glossary Off
Versions: 1 2 3 4 5 6 7 8 9 10 11 12 13 14 15 16 17 18 19 20 21 22 23 24 25 26 27 28 29 30 31 32 33 34 35 36 37 38 39 40 41 42 43 44 45 46 47 48 49 50

000
ASUS43 KMKX 111800
RWRWI

WISCONSIN REGIONAL WEATHER ROUNDUP
NATIONAL WEATHER SERVICE MILWAUKEE/SULLIVAN WI
1200 PM CST THU FEB 11 2016

NOTE: "FAIR" INDICATES FEW OR NO CLOUDS BELOW 12,000 FEET WITH NO
SIGNIFICANT WEATHER AND/OR OBSTRUCTIONS TO VISIBILITY.

WIZ001-002-006>008-014>016-023>028-111900-
NORTHWEST WISCONSIN

CITY           SKY/WX    TMP DP  RH WIND       PRES   REMARKS
SUPERIOR ARPT  CLOUDY     6  -6  57 SW7       30.29F WCI  -6
ASHLAND        CLOUDY     9  -3  58 W8        30.27F WCI  -3
6HR MIN TEMP:  -5; 6HR MAX TEMP:   9;

HAYWARD        CLOUDY     6  -5  60 SW6       30.24F WCI  -4
6HR MIN TEMP: -21; 6HR MAX TEMP:   6;

SIREN          MOSUNNY    9  -7  47 CALM      30.28F
CUMBERLAND     SUNNY      7  -8  51 S5        30.26F WCI  -2
RICE LAKE      SUNNY      6  -5  58 CALM      30.29F
CHETEK         SUNNY      9  -5  53 S3        30.29F
LADYSMITH      CLOUDY     9   0  66 CALM      30.26F
6HR MIN TEMP: -19; 6HR MAX TEMP:   9;

EAU CLAIRE     NOT AVBL
MENOMONIE      SUNNY     21  -5  31 SE3       30.31F
6HR MIN TEMP:  -7; 6HR MAX TEMP:  22;

NEW RICHMOND   MOSUNNY   10  -5  49 CALM      30.30F
OSCEOLA        MOSUNNY   10  -4  51 CALM      30.33F
$$

WIZ003>005-009-010-017-018-111900-
NORTH CENTRAL WISCONSIN

CITY           SKY/WX    TMP DP  RH WIND       PRES   REMARKS
MANITOWISH WTR MOSUNNY    6  -3  66 SW5       30.16F WCI  -3
ARBOR VITAE    PTSUNNY   11  -2  55 W8        30.17S WCI   0
WOODRUFF       PTSUNNY   11  -2  55 W8        30.17S WCI   0
RHINELANDER    CLOUDY    12  -3  51 W10       30.16F WCI  -1
6HR MIN TEMP:  -7; 6HR MAX TEMP:  12; 6HR PCP: TRACE;

EAGLE RIVER    SUNNY     11  -3  52 W6        30.15S WCI   1
LAND O LAKES   MOSUNNY   12   0  58 W3        30.15S
PHILLIPS       CLOUDY     6  -3  68 W5        30.21F WCI  -3
TOMAHAWK       SUNNY     10  -4  52 W7        30.20F WCI   0
MEDFORD        SUNNY      8  -2  63 W5        30.21F WCI  -1
MERRILL        SUNNY     12  -1  55 SW7       30.22F WCI   2
$$

WIZ029-030-035-036-043>047-111900-
CENTRAL WISCONSIN

CITY           SKY/WX    TMP DP  RH WIND       PRES   REMARKS
WAUSAU         SUNNY     12  -2  53 NW9       30.22F WCI   0
6HR MIN TEMP:  -4; 6HR MAX TEMP:  12;

MOSINEE        SUNNY     10   0  61 CALM      30.24F
MARSHFIELD     SUNNY      9  -3  58 W9        30.24F WCI  -4
6HR MIN TEMP: -10; 6HR MAX TEMP:   9;

STEVENS POINT  SUNNY     10  -2  59 SW10      30.26F WCI  -4
WAUPACA        SUNNY     17   0  46 W10       30.28F WCI   5
6HR MIN TEMP:   0; 6HR MAX TEMP:  18;

WAUTOMA        NOT AVBL
WISC RAPIDS    SUNNY     12  -6  44 W6        30.29F WCI   3
6HR MIN TEMP: -10; 6HR MAX TEMP:  12;

CAMP DOUGLAS   NOT AVBL
$$

WIZ011>013-019>022-031-037>040-048>050-111900-
NORTHEAST WISCONSIN

CITY           SKY/WX    TMP DP  RH WIND       PRES   REMARKS
ANTIGO         SUNNY     11  -2  56 NW10      30.18F WCI  -3
SHAWANO        SUNNY     17   2  51 W7        30.26S WCI   7
6HR MIN TEMP:   1; 6HR MAX TEMP:  17;

OCONTO         SUNNY     13   0  55 W8        30.26F WCI   2
STURGEON BAY   SUNNY     12   0  57 NW9       30.25F WCI   0
6HR MIN TEMP:   1; 6HR MAX TEMP:  12;

GREEN BAY      SUNNY     13   1  59 W10       30.27S WCI   0
6HR MIN TEMP:  -4; 6HR MAX TEMP:  13;

MANITOWOC      NOT AVBL
APPLETON       SUNNY     12   0  57 W10       30.26S WCI  -1
CLINTONVILLE   SUNNY     14   0  52 W10       30.27S WCI   1
OSHKOSH        SUNNY     13   1  59 W9        30.28S WCI   1
6HR MIN TEMP:  -2; 6HR MAX TEMP:  13;

$$

WIZ032>034-041-042-053>061-111900-
SOUTHWEST WISCONSIN

CITY           SKY/WX    TMP DP  RH WIND       PRES   REMARKS
LA CROSSE      SUNNY     12  -2  53 CALM      30.35F
6HR MIN TEMP:  -6; 6HR MAX TEMP:  12;

SPARTA         SUNNY     12  -2  54 NW6       30.33F WCI   2
VIROQUA        SUNNY     12  -3  50 CALM      30.28F
BOSCOBEL       SUNNY     16  -2  45 S7        30.35F WCI   6
6HR MIN TEMP:  -6; 6HR MAX TEMP:  16;

PRAIRIE DU CHI SUNNY     14  -2  50 CALM      30.36F
PLATTEVILLE    SUNNY     12   1  61 CALM      30.33F
$$

WIZ056-057-062-063-064-067-068-111900-
SOUTH CENTRAL WISCONSIN

CITY           SKY/WX    TMP DP  RH WIND       PRES   REMARKS
REEDSBURG      SUNNY     10  -3  56 W7        30.32S WCI   0
BARABOO/DELLS  SUNNY     11  -3  52 W8        30.30F WCI   0
LONE ROCK      NOT AVBL
MINERAL POINT  SUNNY     16   0  48 SW3       30.30F
MADISON        PTSUNNY   13  -1  54 CALM      30.31F
6HR MIN TEMP:   0; 6HR MAX TEMP:  13;

MIDDLETON      SUNNY     15  -1  50 NW3       30.32S
WATERTOWN      SUNNY     14   2  60 NW6       30.30F WCI   5
MONROE         SUNNY     18   1  49 W6        30.30S WCI   9
JANESVILLE     SUNNY     18   1  49 NW6       30.32S WCI   9
$$

WIZ051-052-058>065-066-070>072-111900-
SOUTHEAST WISCONSIN

CITY           SKY/WX    TMP DP  RH WIND       PRES   REMARKS
MILWAUKEE      MOSUNNY   16   0  49 NW8       30.31S WCI   5
6HR MIN TEMP:   5; 6HR MAX TEMP:  16;

WAUKESHA       SUNNY     12   0  57 W9        30.30S WCI   0
MILWAUKEE/TIMM SUNNY     -2  -2 100 NW8       30.31S WCI -17
RACINE         SUNNY     16  -1  47 W8        30.32S WCI   5
6HR MIN TEMP:   4; 6HR MAX TEMP:  16;

BURLINGTON     SUNNY     15   0  51 W8        30.31S WCI   4
6HR MIN TEMP:  -1; 6HR MAX TEMP:  15;

KENOSHA        SUNNY     16   2  54 VRB7      30.31S WCI   6
6HR MIN TEMP:   4; 6HR MAX TEMP:  16;

FOND DU LAC    SUNNY     12   0  58 W9        30.29S WCI   0
6HR MIN TEMP:   1; 6HR MAX TEMP:  13; 6HR PCP: TRACE;

SHEBOYGAN      SUNNY     13   0  56 W10       30.28S WCI   0
6HR MIN TEMP:   1; 6HR MAX TEMP:  13;

WEST BEND      SUNNY     14   0  52 CALM      30.28S
JUNEAU         SUNNY     11   0  60 W6        30.30F WCI   2
6HR MIN TEMP:  -1; 6HR MAX TEMP:  11;

$$

LSZ147-162-111900-
LAKE SUPERIOR

STATION/POSITION TIME  TEMP    WIND        PRES    WAVE
                       AIR SEA DIR/SP/G            HT/PER
                 (UTC) (F)     (DEG/KT/KT) (MB)    (FT/S)
DEVILS ISLAND    1700   10     260/ 12/ 16 1026.2F
SAXON HARBOR     1740   10                 1024.7F
$$

LMZ867-665-643>646-111900-
LAKE MICHIGAN

STATION/POSITION TIME  TEMP    WIND        PRES    WAVE
                       AIR SEA DIR/SP/G            HT/PER
                 (UTC) (F)     (DEG/KT/KT) (MB)    (FT/S)
CHAMBERS ISLAND  1700   15     250/  6/  9 1024.0R
ALGOMA LAKESHORE 1711          320/  6/ 12   N/A
KEWAUNEE LAKESHO 1700   12     300/ 10/ 14 1023.8F
SHEBOYGAN LAKESH 1700   11     330/ 11/ 13 1027.5R
PORT WASHINGTON  1700   13     300/  8/ 11 1027.1R
MILWAUKEE LAKESH 1710   14     300/  8/ 10   N/A
KENOSHA   LAKESH 1700   13     330/  9/ 11 1026.4R
$$

TC  - TEMPERATURE IN CELSIUS
VSB - VISIBILITY IN STATUTE MILES
WCI - WIND CHILL INDEX
HX  - HEAT INDEX




USA.gov is the U.S. government's official web portal to all federal, state and local government web resources and services.